Location: Blankensee
(53.5126°N, 14.3055°E)
Time: 19:01:02
(UTC+00:00)

CBERS-1 - Pass Details

Date: 08 August 2020
Orbit: 769 x 778 km, 98.6° (Epoch: 20 September)

Event Time Altitude Azimuth Distance (km) Brightness Sun altitude
Rises 01:22:42 0° 16° (NNE) 3,267 8.8 -14.7°
Reaches altitude 10° 01:25:03 10° 19° (NNE) 2,334 7.8 -14.5°
Maximum altitude 01:30:11 72° 104° (ESE) 818 4.2 -14.1°
Enters shadow 01:34:17 16° 187° (S) 1,923 5.6 -13.7°
